SJ-11-06

Satellite information

Favourite Embed

Satellite Type and Status

PAYLOADIN ORBIT

Key statistics

Satellite SJ-11-06 at a glance.

Uptime

4170

Days in orbit

Revolutions

≈ 14.6

Per day

Orbit

SSO

Sun Synchronous Orbit

Inclination

98.0

Latest

Satellite identification and parameters

Extended collection of information and parameters for SJ-11-06.

Object identification

Identified? True

Debris? False

Object name: SJ-11-06

International designator: 2014-014A

Object number (NORAD): 39624

Object ID (CCSDS): 39624

Country: PEOPLES REPUBLIC OF CHINA (PRC)

Current information (Y/N): Y

RCS size: LARGE

Orbital parameters

Period: 98.533 minutes

Inclination: 97.9833 deg

SMA: 7066.644 km

Apoapsis: 698.418 km

Periapsis: 678.6 km

RAAN: 274.3737 deg

Eccentricy: 0.00140225

Argument of periapsis: 176.6616 deg

Mean anomaly: 183.4681 deg

Mean motion: 14.6144648 rev/day

Mean motion (dot): 0.00000681 rev/day2

B* drag term: 0.00014652284 1/REarth

Two-line elements (TLE)

Creation date: Aug. 30, 2025, 3:38 a.m.

Reference frame: TEME

Reference center: EARTH

Epoch: Aug. 29, 2025, 11 p.m. UTC

TLE line 0: 0 SJ-11-06

TLE line 1: 1 39624U 14014A 25241.95900522 .00000681 00000-0 14652-3 0 9996

TLE line 2: 2 39624 97.9833 274.3737 0014023 176.6616 183.4681 14.61446480608150

Live tracking on map

Real-time ground track for satellite SJ-11-06.

In-orbit conjunctions

There are no conjunctions computed for SJ-11-06, at the moment. Check back to stay up to date, as we update our databases every day.

Go to all conjunctions

Associated space launch

SJ-11-06 was lifted into orbit during the mission ‘Long March 2C | Shijian 11-06’, on board a Long March 2 space rocket.

The launch took place on March 31, 2014, 2:46 a.m. from Launch Area 4 (SLS-2 / 603).

For more information about the launch, click the button.

Launch to space Long March 2C | Shijian 11-06
Long March 2C | Shijian 11-06

Agency: N/A

Status: Launch Successful

Launch date: March 31, 2014, 2:46 a.m. UTC

Rocket: Long March 2

Launch pad: Launch Area 4 (SLS-2 / 603)

Location: Jiuquan Satellite Launch Center, People's Republic of China

...

Latest news about this satellite

There are no fresh news available about this satellite. Check back as we update our databases every day.


Newsletter sign-up

Weekly statistics, charts and insights to help you stay on top of the space industry.